Date,TemperatureHighF,TemperatureAvgF,TemperatureLowF,DewpointHighF,DewpointAvgF,DewpointLowF,HumidityHigh,HumidityAvg,HumidityLow,PressureMaxIn,PressureMinIn,WindSpeedMaxMPH,WindSpeedAvgMPH,GustSpeedMaxMPH,PrecipitationSumIn
2013-1-11,95,83,69,72,68,65,88,65,45,29.56,29.36,0,0,0,0.00
2013-1-12,101,85,75,72,68,60,84,60,29,29.60,29.36,0,0,0,0.00
2013-1-13,83,77,71,72,70,68,91,79,69,29.59,29.39,0,0,0,0.00
2013-1-14,74,72,69,68,61,54,89,70,50,29.82,29.53,0,0,0,0.00
2013-1-15,79,73,69,64,62,59,79,68,56,29.82,29.69,0,0,0,0.00
2013-1-16,78,77,77,65,65,65,68,66,64,29.65,29.65,0,0,0,0.00
2013-1-17,82,78,78,72,66,65,72,65,64,29.58,29.40,0,0,0,0.00
2013-1-19,79,77,76,70,67,65,74,71,69,29.71,29.46,0,0,0,0.00
2013-1-20,76,76,76,65,65,65,69,69,69,29.74,29.66,0,0,0,0.00
2013-1-22,76,76,76,70,70,70,82,82,82,29.57,29.54,0,0,0,0.00
2013-1-23,75,74,73,70,70,69,90,85,83,29.73,29.62,0,0,0,0.00
2013-1-24,78,74,71,74,70,68,91,86,82,29.74,29.65,0,0,0,0.00
2013-1-25,75,73,72,73,71,70,92,92,91,29.66,29.51,0,0,0,0.00
2013-1-26,82,78,76,78,74,72,90,86,78,29.61,29.52,0,0,0,0.00
2013-1-27,78,76,74,74,73,72,97,92,84,29.54,29.46,0,0,0,0.00
2013-1-28,74,73,72,74,72,70,100,96,95,29.52,29.31,0,0,0,0.00
2013-1-29,76,73,72,76,72,67,99,94,74,29.53,29.23,0,0,0,0.00
2013-1-30,76,73,72,71,69,69,92,89,85,29.69,29.55,0,0,0,0.00
2013-1-31,95,79,73,85,70,57,93,76,51,29.68,29.43,2,0,18,0.00
2013-2-1,97,73,65,77,69,64,100,89,42,29.45,29.36,0,0,0,0.00
2013-2-2,72,64,60,66,61,55,100,90,64,29.63,29.36,0,0,0,0.00
2013-2-3,81,69,59,63,57,52,84,67,42,29.77,29.56,0,0,0,0.00
2013-2-4,85,71,63,66,63,58,97,76,42,29.94,29.74,0,0,0,0.00
2013-2-5,94,75,61,67,63,57,100,72,33,29.94,29.88,0,0,0,0.00
2013-2-6,95,77,62,69,62,56,100,66,32,29.90,29.76,0,0,0,0.00
2013-2-7,96,77,59,68,62,59,100,66,31,29.79,29.69,0,0,0,0.00
2013-2-8,103,80,60,69,64,60,100,65,29,29.78,29.69,0,0,0,0.00
2013-2-9,107,82,64,71,67,58,100,68,24,29.75,29.60,0,0,0,0.00
2013-2-10,104,80,68,74,70,67,100,76,34,29.83,29.60,0,0,0,0.00
2013-2-11,76,70,66,70,68,66,100,93,77,29.82,29.73,0,0,0,0.00
2013-2-12,87,73,68,75,67,62,100,81,50,29.89,29.74,0,0,0,0.00
2013-2-13,93,75,63,69,62,57,100,69,34,29.94,29.85,0,0,0,0.00
2013-2-14,97,75,60,66,62,58,100,69,29,29.91,29.80,0,0,0,0.00
2013-2-15,85,74,65,72,66,60,100,79,45,29.88,29.81,0,0,0,0.00
2013-2-16,94,76,65,83,66,60,100,74,37,29.88,29.81,0,0,0,0.00
2013-2-17,92,73,63,74,64,58,100,75,40,29.88,29.81,0,0,0,0.00
2013-2-18,95,76,62,75,65,60,100,75,32,29.83,29.72,0,0,0,0.00
2013-2-19,98,78,63,72,67,62,100,73,39,29.73,29.63,0,0,0,0.00
2013-2-20,92,77,67,75,65,50,100,70,44,29.77,29.64,0,0,0,0.00
2013-2-21,92,76,68,74,61,48,95,61,45,29.77,29.69,0,0,0,0.00
2013-2-22,86,72,66,70,68,64,100,85,57,29.75,29.67,0,0,0,0.00
2013-2-23,80,72,68,78,71,68,100,97,82,29.67,29.43,0,0,0,0.00
2013-2-24,102,82,69,81,73,69,100,80,39,29.69,29.50,0,0,0,0.00
2013-2-25,102,82,70,77,72,71,100,76,40,29.78,29.65,0,0,0,0.00
2013-2-26,95,79,70,75,70,66,96,75,42,29.79,29.70,0,0,0,0.01
2013-2-27,101,80,69,70,67,61,93,69,31,29.74,29.56,0,0,0,0.00
2013-2-28,101,77,66,73,68,65,100,77,36,29.59,29.43,0,0,0,0.00
2013-3-1,69,66,63,68,66,62,99,99,97,29.73,29.47,0,0,0,0.00
2013-3-2,66,65,63,66,64,62,99,98,97,29.83,29.72,0,0,0,0.00
2013-3-3,86,72,66,86,72,66,99,99,99,29.85,29.77,0,0,0,0.00
2013-3-4,89,75,67,89,75,67,99,99,99,29.88,29.81,0,0,0,0.00
2013-3-5,90,77,66,71,65,61,99,71,39,29.88,29.81,0,0,0,0.00
2013-3-6,95,78,68,68,65,61,93,68,34,29.86,29.76,0,0,0,0.00
2013-3-7,96,76,61,69,63,60,100,71,32,29.85,29.75,0,0,0,0.00
2013-3-8,93,75,62,70,65,61,100,74,38,29.90,29.81,0,0,0,0.00
2013-3-9,92,77,68,69,66,61,92,71,39,29.88,29.79,0,0,0,0.14
2013-3-10,96,76,62,71,64,60,100,72,31,29.84,29.75,0,0,0,0.00
2013-3-11,96,76,64,72,66,63,100,74,37,29.87,29.77,0,0,0,0.00
2013-3-12,94,76,64,72,65,60,100,73,35,29.86,29.74,0,0,0,0.00
2013-3-13,97,75,60,69,63,59,100,73,30,29.75,29.55,0,0,0,0.00
2013-3-14,93,80,64,71,66,57,94,66,33,29.66,29.53,0,0,0,0.00
2013-3-15,76,72,68,72,70,68,100,93,84,29.75,29.63,0,0,0,0.00
2013-3-16,98,78,64,72,68,63,100,76,37,29.73,29.47,0,0,0,0.00
2013-3-17,80,72,66,71,58,50,100,65,39,29.80,29.46,0,0,0,0.00
2013-3-18,80,67,58,60,56,52,99,72,39,29.91,29.77,0,0,0,0.00
2013-3-19,88,69,57,63,59,54,100,74,33,30.00,29.86,0,0,0,0.00
2013-3-20,92,71,57,69,61,57,100,76,37,29.99,29.88,0,0,0,0.00
2013-3-21,96,74,57,67,61,54,100,70,29,29.89,29.65,0,0,0,0.00
2013-3-22,97,79,66,68,66,64,95,66,36,29.70,29.62,0,0,0,0.00
2013-3-23,98,82,73,72,66,61,91,60,33,29.74,29.63,0,0,0,0.00
2013-3-24,99,81,68,73,67,42,99,69,21,29.73,29.57,0,0,0,0.00
2013-3-25,89,76,63,71,65,55,100,73,47,29.81,29.66,0,0,0,0.00
2013-3-26,100,78,67,73,63,51,85,60,39,29.82,29.70,0,0,0,0.00
2013-3-27,102,80,65,72,68,64,100,74,34,29.82,29.70,0,0,0,0.00
2013-3-28,99,80,66,73,67,61,100,69,29,29.76,29.60,0,0,0,0.00
2013-3-29,80,70,61,71,57,51,100,67,43,29.81,29.63,0,0,0,0.00
2013-3-30,90,70,53,65,58,53,100,71,32,29.79,29.59,0,0,0,0.00
2013-3-31,86,70,61,65,59,51,100,73,31,29.71,29.50,0,0,0,0.00
2013-4-1,89,70,60,66,63,60,100,81,40,29.77,29.69,0,0,0,0.00
2013-4-2,94,71,57,84,66,56,100,86,69,29.73,29.63,0,0,0,0.00
2013-4-3,69,64,60,68,64,60,100,98,93,29.94,29.72,0,0,0,0.04
2013-4-4,76,66,60,70,62,58,100,90,62,30.10,29.94,0,0,0,0.00
2013-4-5,87,70,61,64,59,54,100,74,38,30.12,30.05,0,0,0,0.00
2013-4-6,87,68,60,66,60,51,100,78,39,30.07,29.94,0,0,0,0.00
2013-4-7,87,67,55,76,57,46,97,72,45,29.95,29.86,0,0,0,0.00
2013-4-8,85,66,54,74,60,53,100,82,60,29.99,29.90,0,0,0,0.00
2013-4-9,87,66,58,71,59,50,100,79,50,30.00,29.92,0,0,0,0.00
2013-4-10,89,69,55,82,61,54,100,81,34,29.96,29.87,0,0,0,0.00
2013-4-11,91,69,52,65,56,50,100,71,29,29.96,29.85,0,0,0,0.00
2013-4-12,91,71,58,66,56,46,88,59,38,29.99,29.90,0,0,0,0.00
2013-4-13,91,71,56,71,60,56,100,75,38,29.89,29.70,0,0,0,0.00
2013-4-14,92,71,55,68,60,54,100,75,31,29.69,29.57,0,0,0,0.00
2013-4-15,94,71,56,93,60,37,100,77,32,29.56,29.07,0,0,0,0.00
2013-4-16,74,67,63,44,37,34,33,33,33,29.29,29.15,0,0,0,0.00
2013-4-17,81,67,55,67,49,26,100,54,33,29.71,29.27,0,0,0,0.00
2013-4-18,88,69,58,66,56,46,94,65,38,29.66,29.57,0,0,0,0.00
2013-4-19,76,64,57,60,49,41,100,63,32,29.65,29.56,0,0,0,0.00
2013-4-20,64,59,57,63,55,40,100,90,48,29.68,29.52,0,0,0,0.00
2013-4-21,83,62,50,56,53,49,100,78,34,29.69,29.59,0,0,0,0.00
2013-4-22,86,66,55,63,53,40,100,69,29,29.57,29.44,0,0,0,0.00
2013-4-23,83,64,48,57,50,43,100,69,25,29.70,29.54,0,0,0,0.00
2013-4-24,85,64,48,77,60,48,100,88,75,29.80,29.69,0,0,0,0.00
2013-4-25,84,63,49,81,62,49,100,95,88,29.89,29.76,0,0,0,0.00
2013-4-26,87,64,50,82,60,46,100,88,81,29.92,29.81,0,0,0,0.00
2013-4-27,89,68,48,82,63,48,100,88,75,29.88,29.76,0,0,0,0.00
2013-4-28,90,69,53,54,48,40,100,55,19,29.82,29.73,0,0,0,0.00
2013-4-29,95,63,50,67,47,34,100,60,22,29.92,29.80,0,0,0,0.00
2013-4-30,81,70,65,69,66,64,100,89,61,29.98,29.88,0,0,0,0.00
2013-5-1,91,73,61,67,61,52,100,73,28,29.86,29.63,0,0,0,0.00
2013-5-2,72,65,58,63,53,48,83,64,43,30.03,29.76,0,0,0,0.00
2013-5-3,82,63,49,59,51,43,100,73,26,30.02,29.83,0,0,0,0.00
2013-5-4,84,66,51,53,46,37,100,53,22,29.93,29.70,0,0,0,0.00
2013-5-5,71,62,53,44,36,27,37,37,37,29.95,29.86,0,0,0,0.00
2013-5-6,73,60,48,45,33,23,37,37,37,30.01,29.90,0,0,0,0.00
2013-5-7,79,62,53,51,36,28,37,37,37,30.09,29.97,0,0,0,0.00
2013-5-8,58,55,52,32,29,26,37,37,37,30.08,30.06,0,0,0,0.00
2013-5-9,85,63,48,66,54,47,100,77,31,30.12,30.04,0,0,0,0.00
2013-5-10,83,62,45,67,56,44,100,83,55,30.12,30.04,0,0,0,0.00
2013-5-11,79,64,54,65,59,53,100,88,58,30.10,30.03,0,0,0,0.00
2013-5-12,86,64,49,83,62,49,100,94,88,30.04,29.88,0,0,0,0.00
2013-5-13,80,62,54,77,60,51,97,90,87,29.86,29.64,0,0,0,0.00
2013-5-14,78,62,56,72,60,55,100,95,78,29.63,29.54,0,0,0,0.00
2013-5-15,74,62,56,74,62,56,99,99,99,29.65,29.53,0,0,0,0.00
2013-5-16,78,64,54,78,64,54,99,99,99,29.57,29.47,0,0,0,0.00
2013-5-17,75,60,51,74,60,51,99,99,99,29.63,29.52,0,0,0,0.00
2013-5-18,73,56,45,45,42,36,85,61,26,29.67,29.57,0,0,0,0.00
2013-5-19,71,57,51,56,43,37,58,58,58,29.71,29.63,22,0,24,0.00
2013-5-20,73,55,43,57,41,29,58,58,58,29.75,29.66,0,0,0,0.00
2013-5-21,58,55,46,58,55,45,99,99,97,29.70,29.58,0,0,0,0.00
2013-5-22,58,58,55,58,58,54,100,99,95,29.65,29.47,0,0,0,0.00
2013-5-23,64,57,53,62,56,53,100,95,80,29.64,29.45,0,0,0,0.00
2013-5-24,69,65,57,62,58,51,89,79,70,29.78,29.63,0,0,0,0.00
2013-5-25,70,63,56,64,57,50,82,81,79,29.93,29.79,0,0,0,0.00
2013-5-26,72,71,65,67,65,59,82,82,82,29.95,29.88,0,0,0,0.00
2013-5-27,72,66,57,67,63,57,100,90,82,30.10,29.92,12,0,12,0.00
2013-5-28,72,60,52,72,56,50,100,86,67,30.18,30.08,0,0,0,0.00
2013-5-29,61,57,54,50,47,43,68,68,68,30.14,30.04,0,0,0,0.00
2013-5-30,56,56,56,46,46,46,68,68,68,30.09,29.99,0,0,0,0.00
2013-5-31,56,56,56,46,46,46,68,68,68,30.04,29.94,0,0,0,0.00
2013-6-1,60,59,59,60,59,59,99,99,99,29.66,29.63,0,0,0,0.00
2013-6-2,65,57,54,65,56,48,100,96,74,29.65,29.35,0,0,0,0.00
2013-6-3,69,58,50,52,45,38,91,63,48,29.84,29.65,0,0,0,0.00
2013-6-4,54,50,43,41,38,31,62,62,62,29.96,29.86,0,0,0,0.00
2013-6-5,56,54,53,43,41,40,62,62,62,29.97,29.87,0,0,0,0.00
2013-6-6,71,61,50,54,46,38,63,58,52,29.91,29.82,0,0,0,0.00
2013-6-7,79,69,58,60,52,40,55,54,51,29.93,29.75,0,0,0,0.00
2013-6-8,65,62,52,47,43,35,51,51,51,30.12,29.96,0,0,0,0.00
2013-6-9,65,64,58,46,45,40,51,51,51,30.05,29.90,0,0,0,0.00
2013-6-10,62,56,46,44,38,29,51,51,51,29.88,29.75,0,0,0,0.00
2013-6-11,58,52,48,40,35,31,51,51,51,29.82,29.72,0,0,0,0.00
2013-6-12,75,61,49,75,61,48,100,100,99,29.68,29.46,0,0,0,0.00
2013-6-13,68,68,68,68,68,68,100,100,100,29.46,29.37,0,0,0,0.00
2013-6-14,68,68,68,68,68,68,100,100,100,29.42,29.33,0,0,0,0.00
2013-6-15,70,64,56,68,58,50,100,81,77,29.59,29.40,0,0,0,0.00
2013-6-16,69,57,45,59,49,41,96,75,52,29.62,29.54,0,0,0,0.00
2013-6-17,67,54,44,49,45,42,100,76,47,29.52,29.44,0,0,0,0.00
2013-6-18,70,55,40,61,50,40,100,83,70,29.66,29.51,3,0,3,0.00
2013-6-19,66,55,50,53,50,47,100,84,54,29.90,29.67,0,0,0,0.00
2013-6-20,64,55,50,51,46,37,80,70,59,29.90,29.80,24,2,24,0.00
2013-6-21,67,53,45,52,42,32,100,66,56,29.83,29.75,0,0,0,0.00
2013-6-22,68,53,40,56,46,40,100,79,54,29.96,29.82,49,1,49,1.13
2013-6-23,63,55,50,52,44,39,66,66,66,30.02,29.93,55,6,55,0.00
2013-6-24,73,58,48,55,42,26,70,58,41,29.90,29.67,0,0,0,0.00
2013-6-25,68,52,44,51,36,21,100,57,41,29.69,29.61,0,0,0,0.00
2013-6-26,70,58,43,62,55,43,100,90,68,29.81,29.64,0,0,0,0.00
2013-6-27,62,59,57,62,59,56,100,99,94,29.86,29.79,0,0,0,0.00
2013-6-28,70,58,55,70,58,54,100,99,94,29.92,29.83,0,0,0,0.00
2013-6-29,68,59,55,67,59,54,100,98,96,29.93,29.85,0,0,0,0.00
2013-6-30,58,55,52,58,55,52,100,98,97,29.93,29.87,0,0,0,0.00
2013-7-1,68,57,52,60,55,52,100,94,71,29.90,29.83,0,0,0,0.00
2013-7-2,76,58,48,55,52,48,100,83,45,29.91,29.83,0,0,0,0.00
2013-7-3,75,53,41,59,48,41,100,84,40,29.91,29.83,7,0,97,0.00
2013-7-4,78,58,42,54,48,42,100,76,38,29.80,29.59,0,0,0,0.00
2013-7-5,78,61,49,57,45,35,99,63,24,29.71,29.49,0,0,0,0.00
2013-7-6,68,53,39,40,35,31,90,55,26,29.88,29.74,0,0,0,0.00
2013-7-7,73,54,39,41,36,29,91,57,20,30.05,29.89,0,0,0,0.00
2013-7-8,74,50,34,47,34,22,74,55,26,30.14,30.04,0,0,0,0.00
2013-7-9,64,52,41,55,46,33,100,81,70,30.23,30.11,0,0,0,0.00
2013-7-10,69,55,50,57,50,40,100,84,61,30.20,30.12,0,0,0,0.00
2013-7-11,72,55,43,65,50,41,100,86,73,30.22,30.13,0,0,0,0.00
2013-7-12,70,53,42,55,46,35,100,76,55,30.14,30.01,0,0,0,0.00
2013-7-13,73,54,40,61,49,40,100,84,56,30.05,29.96,0,0,0,0.00
2013-7-14,78,55,41,59,46,36,100,73,35,30.02,29.96,0,0,0,0.00
2013-7-15,71,59,52,59,55,52,100,90,60,29.95,29.87,0,0,0,0.00
2013-7-16,78,61,52,63,55,52,100,84,43,29.96,29.88,0,0,0,0.00
2013-7-17,84,63,50,64,55,50,100,79,37,29.93,29.85,0,0,0,0.00
2013-7-18,84,62,50,61,55,50,100,82,40,29.90,29.79,0,0,0,0.00
2013-7-19,77,60,52,62,57,51,100,89,46,29.75,29.59,0,0,0,0.00
2013-7-20,75,62,53,58,50,35,100,72,37,29.58,29.40,0,0,0,0.00
2013-7-21,68,54,42,42,35,27,91,54,21,29.74,29.59,0,0,0,0.00
2013-7-22,71,52,35,44,34,29,100,58,21,29.81,29.71,0,0,0,0.00
2013-7-23,71,55,42,43,38,35,83,55,29,29.85,29.73,0,0,0,0.00
2013-7-24,67,58,49,48,44,39,74,60,50,30.03,29.86,0,0,0,0.00
2013-7-25,77,56,44,48,45,40,97,70,30,30.08,30.00,0,0,0,0.00
2013-7-26,74,54,39,49,42,37,100,71,28,30.00,29.90,0,0,0,0.00
2013-7-27,78,55,38,55,42,26,100,67,36,30.09,29.99,0,0,0,0.00
2013-7-28,74,54,42,55,37,20,97,54,42,30.09,29.97,0,0,0,0.00
2013-7-29,82,58,41,72,53,41,100,85,70,29.97,29.85,0,0,0,0.00
2013-7-30,81,61,46,72,53,38,96,77,69,29.82,29.72,0,0,0,0.00
2013-7-31,66,59,55,61,56,49,100,88,71,29.91,29.79,0,0,0,0.00
2013-8-1,74,57,45,54,50,44,100,80,44,29.88,29.79,0,0,0,0.00
2013-8-2,76,56,41,54,45,40,100,72,33,29.78,29.59,0,0,0,0.00
2013-8-3,73,60,45,47,40,38,97,51,29,29.70,29.57,0,0,0,0.00
2013-8-4,74,58,46,45,42,40,81,56,33,29.71,29.57,0,0,0,0.00
2013-8-5,74,58,46,42,40,37,78,54,28,29.75,29.64,0,0,0,0.00
2013-8-6,80,62,46,58,46,38,87,58,43,29.70,29.50,0,0,0,0.00
2013-8-7,78,60,53,53,44,35,100,57,38,29.60,29.47,0,0,0,0.00
2013-8-8,62,54,49,62,53,48,100,99,99,29.64,29.37,0,0,0,0.00
2013-8-9,74,61,51,74,60,38,99,95,43,29.73,29.62,0,0,0,0.00
2013-8-10,82,65,53,48,41,36,82,46,20,29.70,29.62,0,0,0,0.00
2013-8-11,84,60,42,66,52,41,100,77,53,29.73,29.61,0,0,0,0.00
2013-8-12,88,64,48,54,46,34,97,60,19,29.57,29.29,0,0,0,0.00
2013-8-13,78,60,45,46,36,28,87,46,19,29.68,29.56,0,0,0,0.00
2013-8-14,81,61,48,38,30,24,43,32,15,29.67,29.48,0,0,0,0.00
2013-8-15,70,59,45,38,30,25,50,34,19,29.86,29.49,0,0,0,0.00
2013-8-16,80,56,36,52,35,19,90,49,21,29.88,29.68,0,0,0,0.00
2013-8-17,80,63,48,66,54,36,100,76,35,29.62,29.44,0,0,0,0.00
2013-8-18,62,51,49,50,39,36,67,64,49,29.75,29.60,0,0,0,0.00
2013-8-19,81,62,48,70,52,38,70,70,67,29.61,29.41,0,0,0,0.00
2013-8-20,73,56,45,42,29,13,70,42,14,29.69,29.53,0,0,0,0.00
2013-8-21,71,54,42,41,22,7,59,31,20,29.68,29.60,0,0,0,0.00
2013-8-22,73,56,40,39,35,30,88,50,21,29.63,29.51,0,0,0,0.00
2013-8-23,74,65,58,42,40,37,53,40,26,29.63,29.49,0,0,0,0.00
2013-8-24,78,63,53,69,50,33,91,65,45,29.89,29.65,0,0,0,0.00
2013-8-25,84,62,43,56,40,26,92,55,18,29.94,29.81,0,0,0,0.00
2013-8-26,81,56,42,47,23,8,40,27,25,29.92,29.85,0,0,0,0.00